CAPE
0 0 3 5 4 0 0 0 0 0 0 0 1 1 0 0 2 0 0 1 0 0 1 0 0 0 0 0 0 0 0 2 0 0 0 0 0 1 1 12 0 0 0 0
1 4 4 4 3 0 0 0 2 0 1 0 1 1 1 1 1 1 0 0 0 1 0 0 0 0 0 0 0 0 0 2 0 0 0 0 0 0 0 0 0 0 1 0
4 5 4 3 0 0 0 0 0 0 3 2 0 1 0 0 1 1 0 0 0 0 0 0 0 0 0 0 0 0 1 1 0 0 0 0 0 0 0 0 1 0 0 0
5 5 5 3 0 0 0 0 0 1 0 0 0 0 0 0 0 1 0 0 0 0 0 0 0 0 0 0 0 0 0 0 0 0 0 0 0 0 0 0 0 0 0 0
2 3 4 2 0 0 0 0 0 0 0 0 0 0 0 0 0 0 0 0 0 0 0 0 0 0 0 0 0 0 0 0 0 0 0 0 0 0 0 0 0 0 0 0
4 3 1 0 0 0 0 0 0 0 0 0 0 0 0 0 0 0 0 0 0 0 0 0 0 0 0 0 0 0 0 0 0 0 0 0 0 0 0 0 0 0 0 0
4 4 5 0 0 0 0 0 0 0 0 0 0 0 0 0 0 0 0 0 0 0 0 0 0 0 0 0 0 0 0 0 0 0 1 0 0 0 0 3 0 0 0 0
3 1 0 0 0 0 0 0 0 0 0 0 0 0 0 0 0 0 0 0 0 0 0 0 0 0 0 0 0 0 0 0 0 2 5 0 0 0 0 0 0 0 1 1
3 3 3 0 0 0 0 0 0 0 0 0 0 0 0 0 0 0 0 0 0 0 0 0 0 0 0 0 0 0 0 0 0 0 0 0 1 0 0 0 0 0 1 2
1 0 0 0 0 0 0 0 0 0 0 0 0 0 0 0 0 0 0 0 0 0 0 0 0 0 0 0 0 0 0 0 0 0 0 0 0 0 0 0 0 0 1 1
2 0 0 0 0 0 0 0 0 0 0 0 0 0 0 0 0 0 0 0 0 0 0 0 0 0 0 0 0 0 0 0 0 0 0 0 0 0 0 0 0 1 3 0
7 1 0 0 0 0 0 0 0 0 0 0 0 0 0 0 0 0 0 0 0 0 0 0 0 0 0 0 0 0 1 0 0 0 0 0 0 0 0 0 0 0 2 0
2 0 13 10 11 0 0 0 0 0 0 0 0 0 0 0 0 0 0 0 0 0 0 0 0 0 0 0 0 0 0 0 0 0 0 0 0 0 0 0 1 1 0 1
3 3 5 18 16 1 0 0 0 0 0 0 0 0 0 0 0 0 0 0 0 0 0 1 0 1 0 1 1 0 0 0 0 0 0 0 0 0 0 0 1 0 0 0
3 2 1 6 11 4 0 0 0 0 0 0 0 0 0 0 0 0 0 0 0 0 3 3 4 3 2 1 1 0 0 0 0 0 0 1 0 0 0 0 6 1 2 0
4 5 13 25 3 0 0 0 0 0 0 0 0 0 0 0 0 0 0 0 0 1 3 2 2 0 1 0 0 0 0 0 0 0 1 0 1 2 1 0 1 1 2 1
1 1 10 16 0 0 0 0 0 0 1 0 0 0 0 0 0 0 0 0 0 1 4 0 2 0 0 0 0 0 0 0 0 0 0 0 3 2 0 3 0 1 1 3
8 7 10 5 0 0 0 0 0 0 0 0 0 0 0 0 0 0 0 0 1 1 0 0 0 0 0 0 0 0 0 0 1 8 1 1 1 1 0 6 2 0 2 1
7 13 1 0 0 0 0 0 8 0 0 0 0 0 0 0 0 0 0 0 0 0 0 0 0 0 0 0 0 0 1 0 0 0 0 1 0 0 1 3 0 1 0 1
0 0 0 0 0 0 1 0 1 2 0 0 0 0 0 0 0 0 0 0 0 0 0 0 0 0 0 0 0 2 0 2 1 3 1 0 0 3 1 2 2 1 2 1
0 0 0 0 0 0 0 0 0 0 0 0 0 0 0 0 0 0 0 0 0 0 0 0 0 0 0 0 0 0 1 0 0 0 1 3 2 0 0 0 3 2 2 1
0 0 0 1 3 1 0 0 0 0 0 0 0 0 0 0 0 0 0 0 0 0 0 0 0 0 2 0 0 0 0 0 0 1 0 0 2 1 1 0 1 1 0 0
0 2 0 0 0 0 0 0 0 0 0 0 1 0 4 0 0 0 0 0 0 0 0 0 0 0 0 0 0 0 0 0 0 0 0 0 0 0 0 0 0 0 0 0
0 0 0 0 0 0 0 0 0 0 0 0 2 1 3 0 0 0 0 0 0 0 0 0 0 1 2 0 0 0 0 0 0 0 0 0 0 0 0 0 0 0 0 0
0 0 0 0 0 0 0 0 0 0 0 3 2 3 1 0 0 0 0 0 0 0 0 0 0 0 0 0 0 1 0 0 1 1 1 1 0 1 0 0 0 0 0 0
1 0 0 0 0 0 0 0 0 0 0 0 1 0 0 0 0 0 0 0 0 0 0 0 0 1 0 0 0 1 1 1 1 0 0 0 0 0 0 0 0 0 1 0
2 0 0 0 0 0 0 0 0 0 0 0 0 0 0 1 0 6 3 3 0 0 0 0 2 1 0 1 0 0 1 0 0 0 0 1 1 0 0 0 1 0 0 2
CIN
0 0 0 0 0 0 0 0 0 0 -1 0 0 0 0 0 0 0 -1 0 -2 0 0 0 0 0 0 0 0 0 0 -1 0 0 0 0 0 -3 -16 -4 -1 0 -1 0
0 0 0 0 0 0 0 0 0 -1 -2 0 0 0 0 0 -1 -1 0 0 0 0 0 0 0 0 0 0 0 0 0 -2 0 0 0 0 0 0 0 0 0 0 -1 0
0 0 0 0 0 0 0 0 0 0 0 0 0 0 0 0 0 0 0 0 0 0 0 0 0 0 0 0 0 0 -1 -1 -1 0 0 0 0 0 0 0 -1 0 0 0
0 0 0 0 0 0 0 0 0 0 0 0 0 0 0 0 0 0 0 0 0 0 0 0 0 0 0 0 0 0 0 0 0 0 0 0 0 0 0 0 0 0 0 0
0 0 0 0 0 0 0 0 0 0 0 0 0 0 0 0 0 0 0 0 0 0 0 0 0 0 0 0 0 0 0 0 0 0 0 0 0 0 0 0 0 0 0 0
0 0 0 0 0 0 0 0 0 0 0 0 0 0 0 0 0 0 0 0 0 0 0 0 0 0 0 0 0 0 0 0 0 0 0 0 0 0 0 0 0 0 0 0
0 0 0 0 0 0 0 0 0 0 0 0 0 0 0 0 0 0 0 0 0 0 0 0 0 0 0 0 0 0 0 0 0 -1 -3 0 0 0 0 0 0 0 -1 0
0 -10 0 0 0 0 0 0 0 0 0 0 0 0 0 0 0 0 0 0 0 0 0 0 0 0 0 0 0 0 0 0 0 0 -1 0 0 0 0 0 0 0 0 -2
0 0 0 0 0 0 0 0 0 0 0 0 0 0 0 0 0 0 0 0 0 0 0 0 0 0 0 0 0 0 0 0 0 0 -1 -1 -2 0 0 0 0 0 0 0
-1 0 0 0 0 0 0 0 0 0 0 0 0 0 0 0 0 0 0 0 0 0 0 0 0 0 0 0 0 0 0 0 0 0 -1 0 0 0 0 0 0 0 0 0
-1 0 0 0 0 0 0 0 0 0 0 0 0 0 0 0 0 0 0 0 0 -1 0 0 0 0 0 0 0 0 0 0 0 0 0 0 0 0 0 0 0 0 0 0
-3 -3 0 0 0 0 0 0 0 0 0 0 0 0 0 0 0 0 0 0 0 0 0 0 0 0 0 0 0 0 -2 0 0 0 0 0 0 0 0 0 0 0 0 0
-6 0 -1 0 0 0 0 0 0 0 0 0 0 0 0 0 0 0 0 0 0 0 0 0 0 0 0 0 0 -1 0 0 0 0 0 0 0 0 0 0 0 0 -1 0
-8 -6 -5 -1 0 -6 0 0 0 0 0 0 0 0 0 0 0 0 0 0 0 0 0 -2 -2 0 -2 -1 -1 -1 0 0 0 0 0 0 0 0 0 0 0 0 0 0
-12 -13 -11 -10 -3 -15 0 0 0 0 0 0 0 0 0 0 0 0 0 0 0 0 -1 -1 -1 0 -1 -2 -2 0 0 0 0 0 0 -1 0 0 0 0 -4 0 0 0
-4 -5 -7 -3 -6 0 0 0 0 0 0 0 0 0 0 0 0 0 0 0 0 0 0 0 0 0 -2 0 0 0 0 0 0 0 -3 0 0 0 0 0 0 0 0 0
-1 -2 -1 -1 0 0 0 0 0 0 -3 0 0 0 0 0 0 0 0 0 0 0 0 0 -1 0 -1 0 0 0 0 0 0 0 0 0 -1 0 0 -1 0 0 0 0
-5 -3 -1 -1 0 0 0 -1 0 0 0 0 0 0 0 0 0 -2 0 0 0 0 0 0 0 0 -1 -1 0 0 0 0 0 -1 0 0 0 0 0 -1 -1 0 0 0
-1 0 -1 0 0 -1 0 0 -2 0 -1 0 0 0 0 -3 0 0 0 0 0 0 0 0 0 0 0 0 0 0 -5 0 0 0 -1 0 0 0 0 0 -1 0 0 0
0 0 0 0 0 0 0 0 0 -1 -2 0 0 0 0 0 0 0 0 0 0 0 0 0 0 0 0 0 -3 -1 0 0 0 0 0 0 0 0 0 0 0 0 0 0
0 0 0 0 0 0 0 0 0 0 0 0 0 0 0 0 0 0 0 0 0 0 0 0 0 0 0 0 0 0 0 0 0 0 0 -1 0 0 0 0 0 0 0 0
0 0 0 -1 -1 0 0 0 0 0 0 0 0 0 0 0 0 0 0 0 0 0 0 0 0 0 0 0 0 0 0 0 0 -1 -1 -2 0 0 0 0 0 0 0 0
-1 -3 -1 0 0 0 0 0 0 0 0 0 -1 0 -2 -1 0 0 0 0 0 0 0 0 0 0 0 0 0 0 0 0 0 0 0 0 -1 -1 0 0 0 0 0 0
0 0 0 0 0 0 0 0 0 0 0 0 -8 -3 -3 -6 0 0 -1 0 0 0 0 0 0 0 -1 0 0 0 0 0 0 -1 0 0 0 0 0 0 0 0 0 0
0 -1 0 0 0 0 0 0 0 0 0 -12 -4 -4 -2 0 -2 0 0 0 0 0 0 0 0 0 0 0 -1 0 0 0 -8 -5 -3 -2 -2 -6 -3 0 0 0 0 0
-5 -1 -1 0 0 0 0 0 0 0 -10 0 0 -1 0 0 0 0 0 0 0 0 0 0 0 0 0 0 0 0 0 0 -4 -6 -7 -4 0 0 0 0 0 0 0 0
-3 0 0 0 0 0 0 0 0 0 0 0 -3 -1 0 0 0 -5 -22 -24 0 0 0 0 0 0 0 0 0 0 0 0 0 0 0 0 0 0 0 0 0 0 0 0
Wind_Speed
31 20 16 13 10 8 14 19 26 16 11 26 28 33 29 28 28 26 27 27 26 29 29 31 30 30 26 26 30 32 30 35 48 51 48 43 40 43 41 46 51 48 55 60
14 12 9 7 6 10 14 22 24 21 17 33 31 29 30 28 28 25 24 25 24 25 27 33 30 28 24 30 33 34 37 38 53 62 44 27 39 50 50 50 55 61 65 69
8 8 8 7 8 8 13 21 26 22 21 25 29 30 31 30 22 21 21 24 25 28 31 27 31 31 29 34 37 36 33 38 44 53 59 62 66 60 55 54 61 66 65 69
7 5 6 5 7 9 15 21 26 22 28 28 27 23 24 26 25 23 22 26 27 29 35 33 34 33 37 36 36 31 35 46 45 49 50 53 58 63 62 60 57 59 61 56
7 7 8 7 7 11 18 22 25 22 26 23 22 22 26 26 27 27 29 30 26 28 34 34 40 38 37 40 36 37 34 46 46 54 49 48 53 47 47 47 48 45 37 35
5 4 8 8 10 14 19 17 17 20 24 23 24 27 27 27 24 26 26 25 30 33 33 31 33 33 34 35 39 42 39 41 44 54 46 44 44 32 33 33 29 22 27 23
6 7 7 6 10 13 14 15 16 21 27 22 24 24 24 25 25 29 25 26 30 27 28 31 32 33 33 32 33 30 38 38 37 46 40 44 26 29 28 36 16 17 16 17
7 6 6 8 10 14 14 15 18 21 26 23 25 23 24 23 24 26 27 26 23 24 28 34 38 36 33 30 26 25 21 28 36 36 36 33 26 21 33 33 30 27 29 28
6 7 8 9 10 12 13 15 16 19 23 26 23 24 24 28 28 28 24 20 21 23 27 30 37 41 37 35 34 26 19 24 30 31 28 21 19 28 33 28 11 28 34 21
6 7 8 10 12 12 13 16 16 19 24 21 19 24 24 20 23 26 24 24 24 23 27 31 35 37 30 37 35 33 31 27 24 20 18 25 26 31 31 20 26 32 26 24
6 8 9 10 11 13 14 15 17 17 22 20 17 17 19 20 20 27 22 27 26 24 27 30 30 32 28 29 27 28 26 20 20 18 21 21 23 36 27 27 29 25 25 26
6 8 8 9 10 12 14 16 16 17 19 21 18 19 18 17 18 21 21 24 22 21 24 24 25 28 26 27 29 22 13 10 20 25 29 31 31 28 28 26 30 23 23 27
5 7 7 8 10 13 15 15 16 19 23 25 23 23 19 16 14 11 21 20 16 18 17 21 21 22 20 23 21 14 23 26 28 28 24 30 31 27 28 29 30 30 29 29
5 6 7 8 9 12 15 17 17 19 21 27 26 19 19 15 10 8 7 12 13 15 14 16 17 19 12 17 13 28 27 26 24 26 28 28 24 27 27 30 31 32 32 32
5 6 8 10 11 12 14 16 16 17 20 24 25 24 16 13 9 2 7 2 4 9 12 10 7 2 19 25 25 28 27 25 22 22 23 25 25 30 31 28 29 31 32 33
7 7 8 9 9 11 15 17 17 13 16 19 21 19 17 14 13 13 9 6 5 5 7 8 17 22 21 20 21 21 21 21 20 23 25 26 25 21 23 28 31 33 34 34
17 15 13 13 13 13 15 15 11 16 13 13 18 17 15 12 11 12 10 6 6 10 19 20 21 20 22 21 23 21 21 22 23 20 19 19 16 23 25 31 34 35 33 32
29 26 23 21 19 18 15 14 17 14 11 12 14 11 10 12 8 9 11 9 18 21 21 20 20 18 20 20 18 16 18 21 23 19 24 22 26 29 31 33 34 35 34 34
31 31 27 19 17 17 15 15 16 13 13 12 12 10 9 11 9 10 11 16 17 19 21 20 19 20 20 18 17 18 20 17 19 21 21 26 30 32 33 34 35 34 34 34
32 25 21 20 16 18 19 15 15 15 15 15 12 11 8 8 9 11 11 14 15 15 17 18 19 19 20 21 21 21 22 22 23 25 27 29 31 32 32 33 34 34 34 34
17 18 18 18 19 16 15 15 14 14 13 14 11 9 7 8 10 10 12 13 15 14 14 16 17 15 14 18 18 20 22 23 23 25 26 26 27 30 31 32 33 33 34 33
17 17 17 16 15 15 14 14 14 15 13 10 10 15 7 8 11 13 13 16 16 17 14 16 15 12 16 18 19 21 23 23 24 25 27 28 28 29 30 32 34 34 34 34
16 15 14 13 13 13 13 13 12 11 17 21 23 24 14 15 12 20 19 19 19 17 17 17 16 17 18 19 20 20 21 23 25 26 28 29 30 31 32 34 34 32 35 34
12 11 10 10 11 10 11 10 10 11 13 26 27 26 22 21 19 17 20 19 19 20 19 17 16 19 20 20 19 21 23 25 27 29 30 31 33 33 34 34 34 34 36 35
11 11 9 8 8 7 7 8 12 13 15 20 24 21 17 19 18 18 20 19 18 19 21 18 18 19 22 23 22 22 25 27 29 30 31 32 34 34 34 35 35 34 35 36
11 10 9 9 8 5 6 5 3 10 13 19 18 15 14 13 15 14 14 16 16 21 22 20 19 22 24 26 27 27 28 29 30 32 32 33 34 34 35 35 36 36 36 36
11 10 7 5 5 5 7 10 10 12 14 15 15 13 12 18 14 14 15 16 22 23 24 22 24 26 27 28 29 29 30 31 32 33 34 34 34 35 35 36 37 37 37 36
Wind_Direction
277 267 256 251 251 242 292 295 293 300 301 296 301 297 309 313 312 317 314 315 313 314 316 315 314 313 318 328 325 319 322 310 303 301 304 305 301 305 311 304 304 303 303 301
266 258 251 245 242 273 289 292 297 302 297 294 295 304 307 309 312 315 318 315 318 320 316 315 315 316 324 325 324 319 317 311 307 304 308 320 311 307 309 307 305 298 299 298
251 247 248 244 257 280 300 298 295 301 295 302 300 300 303 305 317 317 317 315 315 313 312 312 312 312 316 318 317 318 316 308 304 301 300 304 302 303 305 304 300 301 298 303
260 260 255 258 277 293 302 302 297 302 298 294 300 302 310 309 310 312 310 310 309 309 309 311 308 311 311 314 315 318 315 306 307 304 306 306 305 305 305 303 301 298 302 305
270 283 285 281 292 305 305 299 299 305 305 307 298 299 304 305 308 307 306 306 310 311 308 308 308 310 312 311 316 315 316 308 310 306 310 309 307 309 309 307 309 307 308 306
299 312 298 301 301 310 307 313 316 311 306 305 302 301 303 306 307 312 312 312 310 309 312 315 313 312 311 309 310 311 312 313 313 308 315 315 313 322 326 323 321 319 318 261
318 316 317 320 322 321 320 317 315 310 304 305 303 308 306 306 309 309 314 315 313 319 324 320 316 313 311 310 310 310 311 314 315 313 320 313 322 333 339 337 265 245 248 257
337 340 336 328 326 321 318 321 314 310 306 306 306 307 309 312 314 313 312 316 321 328 325 319 317 318 319 321 322 326 318 324 321 317 316 317 327 343 318 304 280 335 303 288
0 1 353 349 342 342 334 331 331 318 310 304 313 307 309 307 308 312 315 324 329 327 321 319 314 313 317 317 320 328 324 321 321 319 320 325 332 295 300 285 222 300 304 283
12 11 2 355 350 344 335 330 335 322 311 314 316 310 310 316 314 313 318 321 323 326 318 313 312 313 319 315 317 320 318 318 320 325 323 281 265 306 299 274 301 297 292 303
14 6 357 355 350 346 336 332 335 325 315 315 319 318 315 317 315 312 319 320 320 320 314 315 316 315 319 318 320 322 317 317 322 324 306 293 282 303 305 286 287 287 296 304
15 4 358 357 353 350 344 330 334 332 324 321 323 316 312 314 317 316 316 318 321 321 319 319 322 319 320 320 319 328 321 326 303 247 243 263 276 271 272 273 280 271 279 290
2 359 353 348 347 343 341 336 333 328 320 318 317 315 317 311 306 321 315 321 324 326 327 326 328 323 328 324 322 327 282 246 241 255 249 267 274 273 286 294 299 292 291 285
345 348 354 346 341 345 342 336 335 332 327 316 317 332 322 335 328 313 302 322 340 340 344 333 329 326 344 326 270 238 236 246 239 246 263 271 271 287 292 297 298 302 303 302
358 358 355 346 341 343 345 339 339 347 334 325 324 333 352 0 1 58 151 125 355 352 350 356 351 86 218 230 231 229 229 224 231 246 260 266 268 284 291 292 301 310 310 313
51 37 15 360 11 7 350 343 357 4 7 353 343 342 348 185 131 131 131 122 51 33 40 161 201 219 218 217 222 230 218 222 221 245 266 270 269 269 278 291 305 310 313 322
75 66 57 57 42 13 6 9 39 116 168 356 354 350 179 184 109 44 28 54 45 152 206 216 218 216 203 213 225 237 239 242 250 247 245 263 265 286 294 311 326 325 334 339
102 93 81 75 61 127 156 182 164 182 193 189 136 159 171 136 140 123 97 94 187 208 216 221 218 216 197 220 214 226 244 261 262 250 278 283 300 314 320 334 339 337 336 330
101 99 114 134 153 156 178 176 167 190 186 194 181 189 189 116 150 154 171 191 194 199 203 208 199 195 200 205 230 252 280 281 285 305 355 329 325 330 334 338 343 335 326 328
99 114 117 118 160 148 133 146 155 159 156 165 170 160 178 183 169 155 159 190 206 214 193 184 200 216 220 238 268 290 297 300 307 317 330 335 340 344 348 345 341 330 335 326
118 117 116 134 136 150 142 135 176 171 172 153 165 174 208 163 154 164 173 215 211 228 221 199 238 247 326 54 28 351 337 321 323 334 345 351 351 350 348 346 338 330 327 325
105 100 104 127 129 114 125 137 175 197 192 172 204 260 214 125 115 185 183 249 248 266 341 309 294 349 3 3 5 360 350 349 345 345 342 342 345 343 352 352 344 334 329 330
50 77 91 103 117 111 115 115 114 116 343 306 303 289 5 33 59 309 315 307 298 332 324 322 324 328 342 350 351 354 355 351 344 344 341 340 336 338 342 337 341 353 342 332
88 94 96 104 101 114 102 91 72 48 20 315 317 320 323 328 337 341 317 324 326 316 318 324 331 329 335 341 345 342 340 336 333 331 334 332 334 334 334 333 335 337 335 339
74 83 76 112 125 122 72 30 8 5 360 346 337 340 345 338 335 330 325 327 327 320 321 328 330 334 334 333 335 334 331 329 328 329 330 333 332 333 331 331 333 333 331 331
68 77 78 75 68 84 48 41 39 14 3 350 347 355 354 352 344 345 340 336 332 325 324 326 330 329 328 328 327 327 328 328 327 327 327 328 328 328 327 330 332 330 326 326
69 65 81 88 64 64 50 30 22 15 5 4 5 7 5 348 354 349 345 340 333 327 323 323 324 323 323 323 324 324 324 324 324 324 325 325 326 327 326 326 327 329 328 325